Location: Rounton
(54.4000°N, 1.3500°W)
Time: 07:41:44
(UTC+00:00)

Tiros 1 despin weight - Pass Details

Date: 03 December 2021
Orbit: 592 x 641 km, 48.2° (Epoch: 19 January)

Event Time Altitude Azimuth Distance (km) Brightness Sun altitude
Rises 13:24:49 0° 208° (SSW) 2,827 ? 11.0°
Reaches altitude 10° 13:27:49 10° 186° (S) 1,922 ? 10.9°
Maximum altitude 13:30:31 16° 148° (SSE) 1,563 ? 10.7°
Drops below altitude 10° 13:33:13 10° 110° (ESE) 1,922 ? 10.6°
Sets 13:36:13 0° 89° (E) 2,827 ? 10.4°
